Time,TemperatureF,DewpointF,PressureIn,WindDirection,WindDirectionDegrees,WindSpeedMPH,WindSpeedGustMPH,Humidity,HourlyPrecipIn,Conditions,Clouds,dailyrainin,SoftwareType,DateUTC
2013-09-09 00:13:00,76.0,68.0,29.93,SSE,164,0.0,0.0,76,0.00,,,0.00,,2013-09-09 05:13:00,
2013-09-09 00:23:00,76.0,68.0,29.93,SSE,163,0.0,0.0,76,0.00,,,0.00,,2013-09-09 05:23:00,
2013-09-09 00:53:00,75.0,68.0,29.93,SSE,163,0.0,0.0,80,0.00,,,0.00,,2013-09-09 05:53:00,
2013-09-09 01:12:00,74.0,67.0,29.93,SSE,163,0.0,0.0,80,0.00,,,0.00,,2013-09-09 06:12:00,
2013-09-09 01:21:00,75.0,68.0,29.93,SSE,163,0.0,0.0,79,0.00,,,0.00,,2013-09-09 06:21:00,
2013-09-09 01:52:00,75.0,68.0,29.93,SSE,163,0.0,0.0,79,0.00,,,0.00,,2013-09-09 06:52:00,
2013-09-09 02:11:00,75.0,67.0,29.93,SSE,164,0.0,0.0,77,0.00,,,0.00,,2013-09-09 07:11:00,
2013-09-09 02:22:00,75.0,67.0,29.93,SSE,164,0.0,0.0,76,0.00,,,0.00,,2013-09-09 07:22:00,
2013-09-09 02:52:00,74.0,67.0,29.93,SSE,163,0.0,0.0,79,0.00,,,0.00,,2013-09-09 07:52:00,
2013-09-09 03:11:00,73.0,66.0,29.93,SSE,164,0.0,0.0,79,0.00,,,0.00,,2013-09-09 08:11:00,
2013-09-09 03:22:00,73.0,67.0,29.93,SSE,163,0.0,0.0,81,0.00,,,0.00,,2013-09-09 08:22:00,
2013-09-09 03:52:00,72.0,67.0,29.94,SSE,163,0.0,0.0,84,0.00,,,0.00,,2013-09-09 08:52:00,
2013-09-09 04:12:00,71.0,66.0,29.94,SSE,163,0.0,0.0,84,0.00,,,0.00,,2013-09-09 09:12:00,
2013-09-09 04:22:00,71.0,66.0,29.94,SSE,163,0.0,0.0,85,0.00,,,0.00,,2013-09-09 09:22:00,
2013-09-09 04:54:00,70.0,66.0,29.95,SSE,164,0.0,0.0,86,0.00,,,0.00,,2013-09-09 09:54:00,
2013-09-09 05:12:00,69.0,65.0,29.95,SSE,163,0.0,0.0,87,0.00,,,0.00,,2013-09-09 10:12:00,
2013-09-09 05:23:00,69.0,65.0,29.95,SSE,163,0.0,0.0,87,0.00,,,0.00,,2013-09-09 10:23:00,
2013-09-09 05:42:00,68.0,64.0,29.95,SSE,163,0.0,0.0,88,0.00,,,0.00,,2013-09-09 10:42:00,
2013-09-09 05:52:00,68.0,64.0,29.96,SSE,163,0.0,0.0,88,0.00,,,0.00,,2013-09-09 10:52:00,
2013-09-09 06:11:00,68.0,65.0,29.96,SSE,164,0.0,0.0,89,0.00,,,0.00,,2013-09-09 11:11:00,
2013-09-09 06:22:00,68.0,65.0,29.96,SSE,163,0.0,0.0,89,0.00,,,0.00,,2013-09-09 11:22:00,
2013-09-09 06:52:00,67.0,64.0,29.97,SSE,163,0.0,0.0,90,0.00,,,0.00,,2013-09-09 11:52:00,
2013-09-09 07:12:00,67.0,64.0,29.97,SSE,164,0.0,0.0,91,0.00,,,0.00,,2013-09-09 12:12:00,
2013-09-09 07:22:00,67.0,64.0,29.97,SSE,163,0.0,0.0,91,0.00,,,0.00,,2013-09-09 12:22:00,
2013-09-09 07:42:00,67.0,64.0,29.98,SSE,163,0.0,0.0,91,0.00,,,0.00,,2013-09-09 12:42:00,
2013-09-09 07:52:00,67.0,64.0,29.98,SSE,163,0.0,0.0,91,0.00,,,0.00,,2013-09-09 12:52:00,
2013-09-09 08:11:00,68.0,65.0,29.98,SSE,163,0.0,0.0,90,0.00,,,0.00,,2013-09-09 13:11:00,
2013-09-09 08:21:00,69.0,65.0,29.99,SSE,163,0.0,0.0,87,0.00,,,0.00,,2013-09-09 13:21:00,
2013-09-09 08:42:00,70.0,65.0,29.99,SSE,163,0.0,0.0,84,0.00,,,0.00,,2013-09-09 13:42:00,
2013-09-09 08:52:00,71.0,66.0,29.99,SSE,162,0.0,1.0,84,0.00,,,0.00,,2013-09-09 13:52:00,
2013-09-09 09:12:00,73.0,66.0,29.99,SW,216,0.0,1.0,79,0.00,,,0.00,,2013-09-09 14:12:00,
2013-09-09 09:22:00,74.0,66.0,30.00,SW,222,0.0,2.0,76,0.00,,,0.00,,2013-09-09 14:22:00,
2013-09-09 09:52:00,77.0,67.0,30.00,SSE,158,0.0,2.0,72,0.00,,,0.00,,2013-09-09 14:52:00,
2013-09-09 10:11:00,79.0,68.0,30.01,SSW,207,0.0,3.0,70,0.00,,,0.00,,2013-09-09 15:11:00,
2013-09-09 10:22:00,82.0,70.0,30.01,SW,233,0.0,3.0,67,0.00,,,0.00,,2013-09-09 15:22:00,
2013-09-09 10:43:00,84.0,70.0,30.01,SSW,212,0.0,3.0,62,0.00,,,0.00,,2013-09-09 15:43:00,
2013-09-09 10:53:00,86.0,70.0,30.01,SW,215,0.0,2.0,60,0.00,,,0.00,,2013-09-09 15:53:00,
2013-09-09 11:13:00,88.0,71.0,30.01,SSW,208,0.0,2.0,57,0.00,,,0.00,,2013-09-09 16:13:00,
2013-09-09 11:24:00,89.0,71.0,30.01,SSW,204,0.0,3.0,55,0.00,,,0.00,,2013-09-09 16:24:00,
2013-09-09 11:43:00,91.0,71.0,30.01,SE,135,0.0,3.0,53,0.00,,,0.00,,2013-09-09 16:43:00,
2013-09-09 11:54:00,92.0,71.0,30.00,East,80,0.0,2.0,51,0.00,,,0.00,,2013-09-09 16:54:00,
2013-09-09 12:12:00,93.0,70.0,30.01,South,172,1.0,4.0,48,0.00,,,0.00,,2013-09-09 17:12:00,
2013-09-09 12:23:00,93.0,68.0,30.01,West,260,1.0,4.0,45,0.00,,,0.00,,2013-09-09 17:23:00,
2013-09-09 12:53:00,94.0,68.0,30.00,West,274,2.0,6.0,43,0.00,,,0.00,,2013-09-09 17:53:00,
2013-09-09 13:13:00,94.0,68.0,30.00,SW,219,1.0,8.0,43,0.00,,,0.00,,2013-09-09 18:13:00,
2013-09-09 13:21:00,94.0,67.0,29.99,SSE,155,1.0,5.0,42,0.00,,,0.00,,2013-09-09 18:21:00,
2013-09-09 13:52:00,95.0,68.0,29.99,SSE,148,3.0,8.0,42,0.00,,,0.00,,2013-09-09 18:52:00,
2013-09-09 14:12:00,94.0,68.0,29.98,West,263,2.0,7.0,43,0.00,,,0.00,,2013-09-09 19:12:00,
2013-09-09 14:22:00,95.0,69.0,29.98,West,264,1.0,4.0,43,0.00,,,0.00,,2013-09-09 19:22:00,
2013-09-09 14:42:00,96.0,68.0,29.98,WSW,238,2.0,7.0,41,0.00,,,0.00,,2013-09-09 19:42:00,
2013-09-09 14:52:00,96.0,68.0,29.98,WSW,238,2.0,7.0,41,0.00,,,0.00,,2013-09-09 19:52:00,
2013-09-09 15:12:00,95.0,68.0,29.97,SW,219,1.0,10.0,42,0.00,,,0.00,,2013-09-09 20:12:00,
2013-09-09 15:21:00,96.0,68.0,29.96,West,270,1.0,9.0,41,0.00,,,0.00,,2013-09-09 20:21:00,
2013-09-09 15:32:00,96.0,68.0,29.96,West,270,1.0,9.0,41,0.00,,,0.00,,2013-09-09 20:32:00,
2013-09-09 15:42:00,96.0,68.0,29.96,West,270,1.0,9.0,41,0.00,,,0.00,,2013-09-09 20:42:00,
2013-09-09 15:53:00,95.0,68.0,29.95,SSW,211,2.0,8.0,41,0.00,,,0.00,,2013-09-09 20:53:00,
2013-09-09 16:12:00,95.0,67.0,29.95,SW,226,2.0,11.0,40,0.00,,,0.00,,2013-09-09 21:12:00,
2013-09-09 16:22:00,95.0,67.0,29.95,East,98,2.0,7.0,40,0.00,,,0.00,,2013-09-09 21:22:00,
2013-09-09 16:44:00,94.0,66.0,29.94,SSW,194,2.0,9.0,40,0.00,,,0.00,,2013-09-09 21:44:00,
2013-09-09 16:54:00,94.0,67.0,29.94,WSW,239,1.0,8.0,41,0.00,,,0.00,,2013-09-09 21:54:00,
2013-09-09 17:13:00,93.0,66.0,29.93,West,260,2.0,4.0,42,0.00,,,0.00,,2013-09-09 22:13:00,
2013-09-09 17:24:00,93.0,64.0,29.93,South,173,2.0,7.0,39,0.00,,,0.00,,2013-09-09 22:24:00,
2013-09-09 17:43:00,93.0,65.0,29.93,NE,43,2.0,9.0,40,0.00,,,0.00,,2013-09-09 22:43:00,
2013-09-09 17:54:00,93.0,66.0,29.93,West,269,1.0,5.0,41,0.00,,,0.00,,2013-09-09 22:54:00,
2013-09-09 18:12:00,92.0,63.0,29.93,East,79,2.0,10.0,39,0.00,,,0.00,,2013-09-09 23:12:00,
2013-09-09 18:22:00,92.0,65.0,29.92,West,264,0.0,4.0,41,0.00,,,0.00,,2013-09-09 23:22:00,
2013-09-09 18:52:00,92.0,64.0,29.93,West,262,0.0,7.0,40,0.00,,,0.00,,2013-09-09 23:52:00,
2013-09-09 19:12:00,91.0,64.0,29.93,WNW,285,1.0,3.0,41,0.00,,,0.00,,2013-09-10 00:12:00,
2013-09-09 19:21:00,90.0,64.0,29.92,WSW,253,0.0,3.0,42,0.00,,,0.00,,2013-09-10 00:21:00,
2013-09-09 19:42:00,89.0,64.0,29.92,SSW,211,0.0,1.0,44,0.00,,,0.00,,2013-09-10 00:42:00,
2013-09-09 19:52:00,88.0,64.0,29.92,SW,224,0.0,1.0,45,0.00,,,0.00,,2013-09-10 00:52:00,
2013-09-09 20:11:00,87.0,64.0,29.92,SSW,212,0.0,1.0,47,0.00,,,0.00,,2013-09-10 01:11:00,
2013-09-09 20:21:00,85.0,65.0,29.92,SSW,212,0.0,0.0,52,0.00,,,0.00,,2013-09-10 01:21:00,
2013-09-09 20:42:00,83.0,65.0,29.93,SSW,212,0.0,0.0,54,0.00,,,0.00,,2013-09-10 01:42:00,
2013-09-09 20:52:00,82.0,65.0,29.93,SSW,212,0.0,0.0,56,0.00,,,0.00,,2013-09-10 01:52:00,
2013-09-09 21:12:00,81.0,65.0,29.93,SSW,213,0.0,0.0,58,0.00,,,0.00,,2013-09-10 02:12:00,
2013-09-09 21:22:00,81.0,66.0,29.94,SSW,212,0.0,0.0,60,0.00,,,0.00,,2013-09-10 02:22:00,
2013-09-09 21:42:00,80.0,66.0,29.95,SSW,212,0.0,0.0,62,0.00,,,0.00,,2013-09-10 02:42:00,
2013-09-09 21:52:00,79.0,65.0,29.95,SSW,213,0.0,0.0,63,0.00,,,0.00,,2013-09-10 02:52:00,
2013-09-09 22:12:00,79.0,65.0,29.96,SSW,213,0.0,0.0,63,0.00,,,0.00,,2013-09-10 03:12:00,
2013-09-09 22:22:00,79.0,66.0,29.96,SSW,212,0.0,0.0,64,0.00,,,0.00,,2013-09-10 03:22:00,
2013-09-09 22:54:00,80.0,66.0,29.97,SSW,194,0.0,0.0,63,0.00,,,0.00,,2013-09-10 03:54:00,
2013-09-09 23:24:00,80.0,64.0,29.98,South,170,0.0,2.0,59,0.00,,,0.00,,2013-09-10 04:24:00,
2013-09-09 23:53:00,80.0,64.0,29.98,SSE,149,0.0,2.0,59,0.00,,,0.00,,2013-09-10 04:53:00,